owner,sensor,date,latitude,longitude,vertical_datum,mass_concentration_of_oxygen_in_sea_water,qcFlag 
DISL,ioos:station:DISL:CATA:1,2017-09-01T00:00:00Z,30.3085,-88.1395,2.29,6.82,1111122 
DISL,ioos:station:DISL:CATA:1,2017-09-01T00:30:00Z,30.3085,-88.1395,2.259,6.78,1111122 
DISL,ioos:station:DISL:CATA:1,2017-09-01T01:00:00Z,30.3085,-88.1395,2.284,6.75,1111122 
DISL,ioos:station:DISL:CATA:1,2017-09-01T01:30:00Z,30.3085,-88.1395,2.28,6.74,1111122 
DISL,ioos:station:DISL:CATA:1,2017-09-01T02:00:00Z,30.3085,-88.1395,2.277,6.76,1111122 
DISL,ioos:station:DISL:CATA:1,2017-09-01T02:30:00Z,30.3085,-88.1395,2.282,6.79,1111122 
DISL,ioos:station:DISL:CATA:1,2017-09-01T03:00:00Z,30.3085,-88.1395,2.299,6.78,1111122 
DISL,ioos:station:DISL:CATA:1,2017-09-01T03:30:00Z,30.3085,-88.1395,2.305,6.79,1111122 
DISL,ioos:station:DISL:CATA:1,2017-09-01T04:00:00Z,30.3085,-88.1395,2.307,6.79,1111122 
DISL,ioos:station:DISL:CATA:1,2017-09-01T04:30:00Z,30.3085,-88.1395,2.328,6.76,1111122 
DISL,ioos:station:DISL:CATA:1,2017-09-01T05:00:00Z,30.3085,-88.1395,2.323,6.75,1111122 
DISL,ioos:station:DISL:CATA:1,2017-09-01T05:30:00Z,30.3085,-88.1395,2.336,6.73,1111122 
DISL,ioos:station:DISL:CATA:1,2017-09-01T06:00:00Z,30.3085,-88.1395,2.352,6.72,1111122 
DISL,ioos:station:DISL:CATA:1,2017-09-01T06:30:00Z,30.3085,-88.1395,2.346,6.7,1111122 
DISL,ioos:station:DISL:CATA:1,2017-09-01T07:00:00Z,30.3085,-88.1395,2.359,6.66,1111122 
DISL,ioos:station:DISL:CATA:1,2017-09-01T07:30:00Z,30.3085,-88.1395,2.381,6.64,1111122 
DISL,ioos:station:DISL:CATA:1,2017-09-01T08:00:00Z,30.3085,-88.1395,2.386,6.62,1111122 
DISL,ioos:station:DISL:CATA:1,2017-09-01T08:30:00Z,30.3085,-88.1395,2.401,6.61,1111122 
DISL,ioos:station:DISL:CATA:1,2017-09-01T09:00:00Z,30.3085,-88.1395,2.414,6.59,1111122 
DISL,ioos:station:DISL:CATA:1,2017-09-01T09:30:00Z,30.3085,-88.1395,2.446,6.61,1111122 
DISL,ioos:station:DISL:CATA:1,2017-09-01T10:00:00Z,30.3085,-88.1395,2.466,6.58,1111122 
DISL,ioos:station:DISL:CATA:1,2017-09-01T10:30:00Z,30.3085,-88.1395,2.473,6.55,1111122 
DISL,ioos:station:DISL:CATA:1,2017-09-01T11:00:00Z,30.3085,-88.1395,2.48,6.51,1111122 
DISL,ioos:station:DISL:CATA:1,2017-09-01T11:30:00Z,30.3085,-88.1395,2.476,6.48,1111122 
DISL,ioos:station:DISL:CATA:1,2017-09-01T12:00:00Z,30.3085,-88.1395,2.471,6.45,1111122 
DISL,ioos:station:DISL:CATA:1,2017-09-01T12:30:00Z,30.3085,-88.1395,2.48,6.44,1111122 
DISL,ioos:station:DISL:CATA:1,2017-09-01T13:00:00Z,30.3085,-88.1395,2.48,6.48,1111122 
DISL,ioos:station:DISL:CATA:1,2017-09-01T13:30:00Z,30.3085,-88.1395,2.481,6.5,1111122 
DISL,ioos:station:DISL:CATA:1,2017-09-01T14:00:00Z,30.3085,-88.1395,2.484,6.38,1111122 
DISL,ioos:station:DISL:CATA:1,2017-09-01T14:30:00Z,30.3085,-88.1395,2.466,6.33,1111122 
DISL,ioos:station:DISL:CATA:1,2017-09-01T15:00:00Z,30.3085,-88.1395,2.447,6.2,1111122 
DISL,ioos:station:DISL:CATA:1,2017-09-01T15:30:00Z,30.3085,-88.1395,2.439,6.1,1111122 
DISL,ioos:station:DISL:CATA:1,2017-09-01T16:00:00Z,30.3085,-88.1395,2.419,5.84,1111122 
DISL,ioos:station:DISL:CATA:1,2017-09-01T16:30:00Z,30.3085,-88.1395,2.396,5.38,1111122 
DISL,ioos:station:DISL:CATA:1,2017-09-01T17:00:00Z,30.3085,-88.1395,2.369,6.85,1111122 
DISL,ioos:station:DISL:CATA:1,2017-09-01T17:30:00Z,30.3085,-88.1395,2.344,6.56,1111122 
DISL,ioos:station:DISL:CATA:1,2017-09-01T18:00:00Z,30.3085,-88.1395,2.318,7.15,1111122 
DISL,ioos:station:DISL:CATA:1,2017-09-01T18:30:00Z,30.3085,-88.1395,2.296,6.89,1111122 
DISL,ioos:station:DISL:CATA:1,2017-09-01T19:00:00Z,30.3085,-88.1395,2.267,6.54,1111122 
DISL,ioos:station:DISL:CATA:1,2017-09-01T19:30:00Z,30.3085,-88.1395,2.237,6.76,1111122 
DISL,ioos:station:DISL:CATA:1,2017-09-01T20:00:00Z,30.3085,-88.1395,2.217,7.3,1111122 
DISL,ioos:station:DISL:CATA:1,2017-09-01T20:30:00Z,30.3085,-88.1395,2.2,7.8,1111122 
DISL,ioos:station:DISL:CATA:1,2017-09-01T21:00:00Z,30.3085,-88.1395,2.19,7.64,1111122 
DISL,ioos:station:DISL:CATA:1,2017-09-01T21:30:00Z,30.3085,-88.1395,2.161,7.69,1111122 
DISL,ioos:station:DISL:CATA:1,2017-09-01T22:00:00Z,30.3085,-88.1395,2.153,7.86,1111122 
DISL,ioos:station:DISL:CATA:1,2017-09-01T22:30:00Z,30.3085,-88.1395,2.142,7.69,1111122 
DISL,ioos:station:DISL:CATA:1,2017-09-01T23:00:00Z,30.3085,-88.1395,2.13,7.77,1111122 
DISL,ioos:station:DISL:CATA:1,2017-09-01T23:30:00Z,30.3085,-88.1395,2.126,7.47,1111122 
DISL,ioos:station:DISL:CATA:1,2017-09-02T00:00:00Z,30.3085,-88.1395,2.118,7.02,1111122 
DISL,ioos:station:DISL:CATA:1,2017-09-02T00:30:00Z,30.3085,-88.1395,2.117,6.42,1111122 
DISL,ioos:station:DISL:CATA:1,2017-09-02T01:00:00Z,30.3085,-88.1395,2.116,6.22,1111122 
DISL,ioos:station:DISL:CATA:1,2017-09-02T01:30:00Z,30.3085,-88.1395,2.129,7.11,1111122 
DISL,ioos:station:DISL:CATA:1,2017-09-02T02:00:00Z,30.3085,-88.1395,2.166,7.74,1111122 
DISL,ioos:station:DISL:CATA:1,2017-09-02T02:30:00Z,30.3085,-88.1395,2.189,7.69,1111122 
DISL,ioos:station:DISL:CATA:1,2017-09-02T03:00:00Z,30.3085,-88.1395,2.225,7.7,1111122 
DISL,ioos:station:DISL:CATA:1,2017-09-02T03:30:00Z,30.3085,-88.1395,2.24,7.53,1111122 
DISL,ioos:station:DISL:CATA:1,2017-09-02T04:00:00Z,30.3085,-88.1395,2.235,8.43,1111122 
DISL,ioos:station:DISL:CATA:1,2017-09-02T04:30:00Z,30.3085,-88.1395,2.241,7.93,1111122 
DISL,ioos:station:DISL:CATA:1,2017-09-02T05:00:00Z,30.3085,-88.1395,2.277,8.24,1111122 
DISL,ioos:station:DISL:CATA:1,2017-09-02T05:30:00Z,30.3085,-88.1395,2.258,8.26,1111122 
DISL,ioos:station:DISL:CATA:1,2017-09-02T06:00:00Z,30.3085,-88.1395,2.25,8.21,1111122 
DISL,ioos:station:DISL:CATA:1,2017-09-02T06:30:00Z,30.3085,-88.1395,2.285,7.96,1111122 
DISL,ioos:station:DISL:CATA:1,2017-09-02T07:00:00Z,30.3085,-88.1395,2.304,7.79,1111122 
DISL,ioos:station:DISL:CATA:1,2017-09-02T07:30:00Z,30.3085,-88.1395,2.312,7.62,1111122 
DISL,ioos:station:DISL:CATA:1,2017-09-02T08:00:00Z,30.3085,-88.1395,2.335,7.71,1111122 
DISL,ioos:station:DISL:CATA:1,2017-09-02T08:30:00Z,30.3085,-88.1395,2.357,7.64,1111122 
DISL,ioos:station:DISL:CATA:1,2017-09-02T09:00:00Z,30.3085,-88.1395,2.368,7.45,1111122 
DISL,ioos:station:DISL:CATA:1,2017-09-02T09:30:00Z,30.3085,-88.1395,2.374,7.47,1111122 
DISL,ioos:station:DISL:CATA:1,2017-09-02T10:00:00Z,30.3085,-88.1395,2.367,7.46,1111122 
DISL,ioos:station:DISL:CATA:1,2017-09-02T10:30:00Z,30.3085,-88.1395,2.369,7.48,1111122 
DISL,ioos:station:DISL:CATA:1,2017-09-02T11:00:00Z,30.3085,-88.1395,2.377,7.19,1111122 
DISL,ioos:station:DISL:CATA:1,2017-09-02T11:30:00Z,30.3085,-88.1395,2.383,6.71,1111122 
DISL,ioos:station:DISL:CATA:1,2017-09-02T12:00:00Z,30.3085,-88.1395,2.396,6.64,1111122 
DISL,ioos:station:DISL:CATA:1,2017-09-02T12:30:00Z,30.3085,-88.1395,2.414,6.03,1111122 
DISL,ioos:station:DISL:CATA:1,2017-09-02T13:00:00Z,30.3085,-88.1395,2.435,5.99,1111122 
DISL,ioos:station:DISL:CATA:1,2017-09-02T13:30:00Z,30.3085,-88.1395,2.44,6.54,1111122 
DISL,ioos:station:DISL:CATA:1,2017-09-02T14:00:00Z,30.3085,-88.1395,2.442,7.05,1111122 
DISL,ioos:station:DISL:CATA:1,2017-09-02T14:30:00Z,30.3085,-88.1395,2.43,6.96,1111122 
DISL,ioos:station:DISL:CATA:1,2017-09-02T15:00:00Z,30.3085,-88.1395,2.415,7.15,1111122 
DISL,ioos:station:DISL:CATA:1,2017-09-02T15:30:00Z,30.3085,-88.1395,2.412,6.78,1111122 
DISL,ioos:station:DISL:CATA:1,2017-09-02T16:00:00Z,30.3085,-88.1395,2.398,6.72,1111122 
DISL,ioos:station:DISL:CATA:1,2017-09-02T16:30:00Z,30.3085,-88.1395,2.365,5.44,1111122 
DISL,ioos:station:DISL:CATA:1,2017-09-02T17:00:00Z,30.3085,-88.1395,2.337,6.66,1111122 
DISL,ioos:station:DISL:CATA:1,2017-09-02T17:30:00Z,30.3085,-88.1395,2.3,7.95,1111122 
DISL,ioos:station:DISL:CATA:1,2017-09-02T18:00:00Z,30.3085,-88.1395,2.263,8.95,1111122 
DISL,ioos:station:DISL:CATA:1,2017-09-02T18:30:00Z,30.3085,-88.1395,2.249,8.99,1111122 
DISL,ioos:station:DISL:CATA:1,2017-09-02T19:00:00Z,30.3085,-88.1395,2.225,9.34,1111122 
DISL,ioos:station:DISL:CATA:1,2017-09-02T19:30:00Z,30.3085,-88.1395,2.197,9.32,1111122 
DISL,ioos:station:DISL:CATA:1,2017-09-02T20:00:00Z,30.3085,-88.1395,2.174,9.85,1111122 
DISL,ioos:station:DISL:CATA:1,2017-09-02T20:30:00Z,30.3085,-88.1395,2.145,10.33,1111122 
DISL,ioos:station:DISL:CATA:1,2017-09-02T21:00:00Z,30.3085,-88.1395,2.12,10.35,1111122 
DISL,ioos:station:DISL:CATA:1,2017-09-02T21:30:00Z,30.3085,-88.1395,2.094,10.49,1111122 
DISL,ioos:station:DISL:CATA:1,2017-09-02T22:00:00Z,30.3085,-88.1395,2.092,11.0,1111122 
DISL,ioos:station:DISL:CATA:1,2017-09-02T22:30:00Z,30.3085,-88.1395,2.079,10.48,1111122 
DISL,ioos:station:DISL:CATA:1,2017-09-02T23:00:00Z,30.3085,-88.1395,2.067,10.33,1111122 
DISL,ioos:station:DISL:CATA:1,2017-09-02T23:30:00Z,30.3085,-88.1395,2.052,10.1,1111122 
DISL,ioos:station:DISL:CATA:1,2017-09-03T00:00:00Z,30.3085,-88.1395,2.05,9.85,1111122 
DISL,ioos:station:DISL:CATA:1,2017-09-03T00:30:00Z,30.3085,-88.1395,2.056,9.58,1111122 
DISL,ioos:station:DISL:CATA:1,2017-09-03T01:00:00Z,30.3085,-88.1395,2.064,9.5,1111122 
DISL,ioos:station:DISL:CATA:1,2017-09-03T01:30:00Z,30.3085,-88.1395,2.084,9.32,1111122 
DISL,ioos:station:DISL:CATA:1,2017-09-03T02:00:00Z,30.3085,-88.1395,2.116,8.38,1111122 
DISL,ioos:station:DISL:CATA:1,2017-09-03T02:30:00Z,30.3085,-88.1395,2.122,8.81,1111122 
DISL,ioos:station:DISL:CATA:1,2017-09-03T03:00:00Z,30.3085,-88.1395,2.133,9.1,1111122 
DISL,ioos:station:DISL:CATA:1,2017-09-03T03:30:00Z,30.3085,-88.1395,2.153,9.06,1111122 
DISL,ioos:station:DISL:CATA:1,2017-09-03T04:00:00Z,30.3085,-88.1395,2.175,8.81,1111122 
DISL,ioos:station:DISL:CATA:1,2017-09-03T04:30:00Z,30.3085,-88.1395,2.191,8.73,1111122 
DISL,ioos:station:DISL:CATA:1,2017-09-03T05:00:00Z,30.3085,-88.1395,2.222,8.57,1111122 
DISL,ioos:station:DISL:CATA:1,2017-09-03T05:30:00Z,30.3085,-88.1395,2.221,8.4,1111122 
DISL,ioos:station:DISL:CATA:1,2017-09-03T06:00:00Z,30.3085,-88.1395,2.248,8.29,1111122 
DISL,ioos:station:DISL:CATA:1,2017-09-03T06:30:00Z,30.3085,-88.1395,2.271,8.36,1111122 
DISL,ioos:station:DISL:CATA:1,2017-09-03T07:00:00Z,30.3085,-88.1395,2.271,8.37,1111122 
DISL,ioos:station:DISL:CATA:1,2017-09-03T07:30:00Z,30.3085,-88.1395,2.28,8.39,1111122 
DISL,ioos:station:DISL:CATA:1,2017-09-03T08:00:00Z,30.3085,-88.1395,2.289,8.32,1111122 
DISL,ioos:station:DISL:CATA:1,2017-09-03T08:30:00Z,30.3085,-88.1395,2.291,8.18,1111122 
DISL,ioos:station:DISL:CATA:1,2017-09-03T09:00:00Z,30.3085,-88.1395,2.315,7.78,1111122 
DISL,ioos:station:DISL:CATA:1,2017-09-03T09:30:00Z,30.3085,-88.1395,2.343,7.48,1111122 
DISL,ioos:station:DISL:CATA:1,2017-09-03T10:00:00Z,30.3085,-88.1395,2.371,7.35,1111122 
DISL,ioos:station:DISL:CATA:1,2017-09-03T10:30:00Z,30.3085,-88.1395,2.4,7.45,1111122 
DISL,ioos:station:DISL:CATA:1,2017-09-03T11:00:00Z,30.3085,-88.1395,2.423,7.12,1111122 
DISL,ioos:station:DISL:CATA:1,2017-09-03T11:30:00Z,30.3085,-88.1395,2.44,6.81,1111122 
DISL,ioos:station:DISL:CATA:1,2017-09-03T12:00:00Z,30.3085,-88.1395,2.458,6.53,1111122 
DISL,ioos:station:DISL:CATA:1,2017-09-03T12:30:00Z,30.3085,-88.1395,2.466,6.56,1111122 
DISL,ioos:station:DISL:CATA:1,2017-09-03T13:00:00Z,30.3085,-88.1395,2.468,6.6,1111122 
DISL,ioos:station:DISL:CATA:1,2017-09-03T13:30:00Z,30.3085,-88.1395,2.464,6.58,1111122 
DISL,ioos:station:DISL:CATA:1,2017-09-03T14:00:00Z,30.3085,-88.1395,2.458,6.51,1111122 
DISL,ioos:station:DISL:CATA:1,2017-09-03T14:30:00Z,30.3085,-88.1395,2.462,6.55,1111122 
DISL,ioos:station:DISL:CATA:1,2017-09-03T15:00:00Z,30.3085,-88.1395,2.469,6.06,1111122 
DISL,ioos:station:DISL:CATA:1,2017-09-03T15:30:00Z,30.3085,-88.1395,2.452,5.53,1111122 
DISL,ioos:station:DISL:CATA:1,2017-09-03T16:00:00Z,30.3085,-88.1395,2.435,5.62,1111122 
DISL,ioos:station:DISL:CATA:1,2017-09-03T16:30:00Z,30.3085,-88.1395,2.415,5.09,1111122 
DISL,ioos:station:DISL:CATA:1,2017-09-03T17:00:00Z,30.3085,-88.1395,2.393,5.0,1111122 
DISL,ioos:station:DISL:CATA:1,2017-09-03T17:30:00Z,30.3085,-88.1395,2.362,6.89,1111122 
DISL,ioos:station:DISL:CATA:1,2017-09-03T18:00:00Z,30.3085,-88.1395,2.332,8.94,1111122 
DISL,ioos:station:DISL:CATA:1,2017-09-03T18:30:00Z,30.3085,-88.1395,2.285,9.7,1111122 
DISL,ioos:station:DISL:CATA:1,2017-09-03T19:00:00Z,30.3085,-88.1395,2.253,9.3,1111122 
DISL,ioos:station:DISL:CATA:1,2017-09-03T19:30:00Z,30.3085,-88.1395,2.217,9.12,1111122 
DISL,ioos:station:DISL:CATA:1,2017-09-03T20:00:00Z,30.3085,-88.1395,2.177,9.04,1111122 
DISL,ioos:station:DISL:CATA:1,2017-09-03T20:30:00Z,30.3085,-88.1395,2.157,9.18,1111122 
DISL,ioos:station:DISL:CATA:1,2017-09-03T21:00:00Z,30.3085,-88.1395,2.116,9.11,1111122 
DISL,ioos:station:DISL:CATA:1,2017-09-03T21:30:00Z,30.3085,-88.1395,2.102,8.84,1111122 
DISL,ioos:station:DISL:CATA:1,2017-09-03T22:00:00Z,30.3085,-88.1395,2.083,9.25,1111122 
DISL,ioos:station:DISL:CATA:1,2017-09-03T22:30:00Z,30.3085,-88.1395,2.074,9.3,1111122 
DISL,ioos:station:DISL:CATA:1,2017-09-03T23:00:00Z,30.3085,-88.1395,2.072,9.68,1111122 
DISL,ioos:station:DISL:CATA:1,2017-09-03T23:30:00Z,30.3085,-88.1395,2.074,9.41,1111122 
DISL,ioos:station:DISL:CATA:1,2017-09-04T00:00:00Z,30.3085,-88.1395,2.083,9.19,1111122 
DISL,ioos:station:DISL:CATA:1,2017-09-04T00:30:00Z,30.3085,-88.1395,2.094,9.02,1111122 
DISL,ioos:station:DISL:CATA:1,2017-09-04T01:00:00Z,30.3085,-88.1395,2.11,8.8,1111122 
DISL,ioos:station:DISL:CATA:1,2017-09-04T01:30:00Z,30.3085,-88.1395,2.118,8.31,1111122 
DISL,ioos:station:DISL:CATA:1,2017-09-04T02:00:00Z,30.3085,-88.1395,2.115,8.52,1111122 
DISL,ioos:station:DISL:CATA:1,2017-09-04T02:30:00Z,30.3085,-88.1395,2.113,8.55,1111122 
DISL,ioos:station:DISL:CATA:1,2017-09-04T03:00:00Z,30.3085,-88.1395,2.126,8.53,1111122 
DISL,ioos:station:DISL:CATA:1,2017-09-04T03:30:00Z,30.3085,-88.1395,2.146,8.56,1111122 
DISL,ioos:station:DISL:CATA:1,2017-09-04T04:00:00Z,30.3085,-88.1395,2.16,8.46,1111122 
DISL,ioos:station:DISL:CATA:1,2017-09-04T04:30:00Z,30.3085,-88.1395,2.176,8.38,1111122 
DISL,ioos:station:DISL:CATA:1,2017-09-04T05:00:00Z,30.3085,-88.1395,2.196,8.27,1111122 
DISL,ioos:station:DISL:CATA:1,2017-09-04T05:30:00Z,30.3085,-88.1395,2.216,8.21,1111122 
DISL,ioos:station:DISL:CATA:1,2017-09-04T06:00:00Z,30.3085,-88.1395,2.221,8.29,1111122 
DISL,ioos:station:DISL:CATA:1,2017-09-04T06:30:00Z,30.3085,-88.1395,2.231,8.13,1111122 
DISL,ioos:station:DISL:CATA:1,2017-09-04T07:00:00Z,30.3085,-88.1395,2.24,7.86,1111122 
DISL,ioos:station:DISL:CATA:1,2017-09-04T07:30:00Z,30.3085,-88.1395,2.258,7.27,1111122 
DISL,ioos:station:DISL:CATA:1,2017-09-04T08:00:00Z,30.3085,-88.1395,2.275,7.24,1111122 
DISL,ioos:station:DISL:CATA:1,2017-09-04T08:30:00Z,30.3085,-88.1395,2.293,6.97,1111122 
DISL,ioos:station:DISL:CATA:1,2017-09-04T09:00:00Z,30.3085,-88.1395,2.32,6.87,1111122 
DISL,ioos:station:DISL:CATA:1,2017-09-04T09:30:00Z,30.3085,-88.1395,2.342,6.69,1111122 
DISL,ioos:station:DISL:CATA:1,2017-09-04T10:00:00Z,30.3085,-88.1395,2.361,6.64,1111122 
DISL,ioos:station:DISL:CATA:1,2017-09-04T10:30:00Z,30.3085,-88.1395,2.384,6.51,1111122 
DISL,ioos:station:DISL:CATA:1,2017-09-04T11:00:00Z,30.3085,-88.1395,2.408,6.34,1111122 
DISL,ioos:station:DISL:CATA:1,2017-09-04T11:30:00Z,30.3085,-88.1395,2.427,6.26,1111122 
DISL,ioos:station:DISL:CATA:1,2017-09-04T12:00:00Z,30.3085,-88.1395,2.446,6.26,1111122 
DISL,ioos:station:DISL:CATA:1,2017-09-04T12:30:00Z,30.3085,-88.1395,2.458,6.08,1111122 
DISL,ioos:station:DISL:CATA:1,2017-09-04T13:00:00Z,30.3085,-88.1395,2.475,6.43,1111122 
DISL,ioos:station:DISL:CATA:1,2017-09-04T13:30:00Z,30.3085,-88.1395,2.5,7.11,1111122 
DISL,ioos:station:DISL:CATA:1,2017-09-04T14:00:00Z,30.3085,-88.1395,2.504,7.25,1111122 
DISL,ioos:station:DISL:CATA:1,2017-09-04T14:30:00Z,30.3085,-88.1395,2.511,7.26,1111122 
DISL,ioos:station:DISL:CATA:1,2017-09-04T15:00:00Z,30.3085,-88.1395,2.504,6.38,1111122 
DISL,ioos:station:DISL:CATA:1,2017-09-04T15:30:00Z,30.3085,-88.1395,2.507,6.05,1111122 
DISL,ioos:station:DISL:CATA:1,2017-09-04T16:00:00Z,30.3085,-88.1395,2.494,6.03,1111122 
DISL,ioos:station:DISL:CATA:1,2017-09-04T16:30:00Z,30.3085,-88.1395,2.478,5.58,1111122 
DISL,ioos:station:DISL:CATA:1,2017-09-04T17:00:00Z,30.3085,-88.1395,2.47,4.94,1111122 
DISL,ioos:station:DISL:CATA:1,2017-09-04T17:30:00Z,30.3085,-88.1395,2.449,5.78,1111122 
DISL,ioos:station:DISL:CATA:1,2017-09-04T18:00:00Z,30.3085,-88.1395,2.434,6.29,1111122 
DISL,ioos:station:DISL:CATA:1,2017-09-04T18:30:00Z,30.3085,-88.1395,2.404,7.89,1111122 
DISL,ioos:station:DISL:CATA:1,2017-09-04T19:00:00Z,30.3085,-88.1395,2.376,8.43,1111122 
DISL,ioos:station:DISL:CATA:1,2017-09-04T19:30:00Z,30.3085,-88.1395,2.334,9.0,1111122 
DISL,ioos:station:DISL:CATA:1,2017-09-04T20:00:00Z,30.3085,-88.1395,2.289,9.35,1111122 
DISL,ioos:station:DISL:CATA:1,2017-09-04T20:30:00Z,30.3085,-88.1395,2.247,9.88,1111122 
DISL,ioos:station:DISL:CATA:1,2017-09-04T21:00:00Z,30.3085,-88.1395,2.208,10.13,1111122 
DISL,ioos:station:DISL:CATA:1,2017-09-04T21:30:00Z,30.3085,-88.1395,2.18,9.94,1111122 
DISL,ioos:station:DISL:CATA:1,2017-09-04T22:00:00Z,30.3085,-88.1395,2.155,9.95,1111122 
DISL,ioos:station:DISL:CATA:1,2017-09-04T22:30:00Z,30.3085,-88.1395,2.138,10.22,1111122 
DISL,ioos:station:DISL:CATA:1,2017-09-04T23:00:00Z,30.3085,-88.1395,2.125,10.76,1111122 
DISL,ioos:station:DISL:CATA:1,2017-09-04T23:30:00Z,30.3085,-88.1395,2.116,10.72,1111122 
DISL,ioos:station:DISL:CATA:1,2017-09-05T00:00:00Z,30.3085,-88.1395,2.118,10.46,1111122 
DISL,ioos:station:DISL:CATA:1,2017-09-05T00:30:00Z,30.3085,-88.1395,2.123,10.44,1111122 
DISL,ioos:station:DISL:CATA:1,2017-09-05T01:00:00Z,30.3085,-88.1395,2.132,10.33,1111122 
DISL,ioos:station:DISL:CATA:1,2017-09-05T01:30:00Z,30.3085,-88.1395,2.145,10.22,1111122 
DISL,ioos:station:DISL:CATA:1,2017-09-05T02:00:00Z,30.3085,-88.1395,2.146,9.65,1111122 
DISL,ioos:station:DISL:CATA:1,2017-09-05T02:30:00Z,30.3085,-88.1395,2.149,9.2,1111122 
DISL,ioos:station:DISL:CATA:1,2017-09-05T03:00:00Z,30.3085,-88.1395,2.156,9.42,1111122 
DISL,ioos:station:DISL:CATA:1,2017-09-05T03:30:00Z,30.3085,-88.1395,2.17,9.26,1111122 
DISL,ioos:station:DISL:CATA:1,2017-09-05T04:00:00Z,30.3085,-88.1395,2.18,9.28,1111122 
DISL,ioos:station:DISL:CATA:1,2017-09-05T04:30:00Z,30.3085,-88.1395,2.192,9.36,1111122 
DISL,ioos:station:DISL:CATA:1,2017-09-05T05:00:00Z,30.3085,-88.1395,2.211,9.26,1111122 
DISL,ioos:station:DISL:CATA:1,2017-09-05T05:30:00Z,30.3085,-88.1395,2.229,9.22,1111122 
DISL,ioos:station:DISL:CATA:1,2017-09-05T06:00:00Z,30.3085,-88.1395,2.243,9.13,1111122 
DISL,ioos:station:DISL:CATA:1,2017-09-05T06:30:00Z,30.3085,-88.1395,2.256,9.24,1111122 
DISL,ioos:station:DISL:CATA:1,2017-09-05T07:00:00Z,30.3085,-88.1395,2.268,9.08,1111122 
DISL,ioos:station:DISL:CATA:1,2017-09-05T07:30:00Z,30.3085,-88.1395,2.281,8.56,1111122 
DISL,ioos:station:DISL:CATA:1,2017-09-05T08:00:00Z,30.3085,-88.1395,2.292,8.25,1111122 
DISL,ioos:station:DISL:CATA:1,2017-09-05T08:30:00Z,30.3085,-88.1395,2.305,7.99,1111122 
DISL,ioos:station:DISL:CATA:1,2017-09-05T09:00:00Z,30.3085,-88.1395,2.313,7.88,1111122 
DISL,ioos:station:DISL:CATA:1,2017-09-05T09:30:00Z,30.3085,-88.1395,2.321,7.66,1111122 
DISL,ioos:station:DISL:CATA:1,2017-09-05T10:00:00Z,30.3085,-88.1395,2.335,7.49,1111122 
DISL,ioos:station:DISL:CATA:1,2017-09-05T10:30:00Z,30.3085,-88.1395,2.355,6.58,1111122 
DISL,ioos:station:DISL:CATA:1,2017-09-05T11:00:00Z,30.3085,-88.1395,2.371,6.25,1111122 
DISL,ioos:station:DISL:CATA:1,2017-09-05T11:30:00Z,30.3085,-88.1395,2.394,6.15,1111122 
DISL,ioos:station:DISL:CATA:1,2017-09-05T12:00:00Z,30.3085,-88.1395,2.411,6.08,1111122 
DISL,ioos:station:DISL:CATA:1,2017-09-05T12:30:00Z,30.3085,-88.1395,2.444,5.8,1111122 
DISL,ioos:station:DISL:CATA:1,2017-09-05T13:00:00Z,30.3085,-88.1395,2.447,6.08,1111122 
DISL,ioos:station:DISL:CATA:1,2017-09-05T13:30:00Z,30.3085,-88.1395,2.461,5.98,1111122 
DISL,ioos:station:DISL:CATA:1,2017-09-05T14:00:00Z,30.3085,-88.1395,2.472,6.25,1111122 
DISL,ioos:station:DISL:CATA:1,2017-09-05T14:30:00Z,30.3085,-88.1395,2.487,6.45,1111122 
DISL,ioos:station:DISL:CATA:1,2017-09-05T15:00:00Z,30.3085,-88.1395,2.49,6.85,1111122 
DISL,ioos:station:DISL:CATA:1,2017-09-05T15:30:00Z,30.3085,-88.1395,2.501,5.99,1111122 
DISL,ioos:station:DISL:CATA:1,2017-09-05T16:00:00Z,30.3085,-88.1395,2.503,4.83,1111122 
DISL,ioos:station:DISL:CATA:1,2017-09-05T16:30:00Z,30.3085,-88.1395,2.512,4.3,1111122 
DISL,ioos:station:DISL:CATA:1,2017-09-05T17:00:00Z,30.3085,-88.1395,2.504,4.24,1111122 
DISL,ioos:station:DISL:CATA:1,2017-09-05T17:30:00Z,30.3085,-88.1395,2.501,4.2,1111122 
DISL,ioos:station:DISL:CATA:1,2017-09-05T18:00:00Z,30.3085,-88.1395,2.503,4.33,1111122 
DISL,ioos:station:DISL:CATA:1,2017-09-05T18:30:00Z,30.3085,-88.1395,2.482,4.21,1111122 
DISL,ioos:station:DISL:CATA:1,2017-09-05T19:00:00Z,30.3085,-88.1395,2.451,4.08,1111122 
DISL,ioos:station:DISL:CATA:1,2017-09-05T19:30:00Z,30.3085,-88.1395,2.428,3.92,1111122 
DISL,ioos:station:DISL:CATA:1,2017-09-05T20:00:00Z,30.3085,-88.1395,2.395,4.15,1111122 
DISL,ioos:station:DISL:CATA:1,2017-09-05T20:30:00Z,30.3085,-88.1395,2.349,4.36,1111122 
DISL,ioos:station:DISL:CATA:1,2017-09-05T21:00:00Z,30.3085,-88.1395,2.319,7.14,1111122 
DISL,ioos:station:DISL:CATA:1,2017-09-05T21:30:00Z,30.3085,-88.1395,2.285,8.46,1111122 
DISL,ioos:station:DISL:CATA:1,2017-09-05T22:00:00Z,30.3085,-88.1395,2.259,8.78,1111122 
DISL,ioos:station:DISL:CATA:1,2017-09-05T22:30:00Z,30.3085,-88.1395,2.241,8.78,1111122 
DISL,ioos:station:DISL:CATA:1,2017-09-05T23:00:00Z,30.3085,-88.1395,2.224,8.31,1111122 
DISL,ioos:station:DISL:CATA:1,2017-09-05T23:30:00Z,30.3085,-88.1395,2.222,7.29,1111122 
DISL,ioos:station:DISL:CATA:1,2017-09-06T00:00:00Z,30.3085,-88.1395,2.235,7.21,1111122 
DISL,ioos:station:DISL:CATA:1,2017-09-06T00:30:00Z,30.3085,-88.1395,2.253,6.86,1111122 
DISL,ioos:station:DISL:CATA:1,2017-09-06T01:00:00Z,30.3085,-88.1395,2.246,6.34,1111122 
DISL,ioos:station:DISL:CATA:1,2017-09-06T01:30:00Z,30.3085,-88.1395,2.257,7.27,1111122 
DISL,ioos:station:DISL:CATA:1,2017-09-06T02:00:00Z,30.3085,-88.1395,2.266,7.18,1111122 
DISL,ioos:station:DISL:CATA:1,2017-09-06T02:30:00Z,30.3085,-88.1395,2.275,7.22,1111122 
DISL,ioos:station:DISL:CATA:1,2017-09-06T03:00:00Z,30.3085,-88.1395,2.259,7.08,1111122 
DISL,ioos:station:DISL:CATA:1,2017-09-06T03:30:00Z,30.3085,-88.1395,2.255,7.35,1111122 
DISL,ioos:station:DISL:CATA:1,2017-09-06T04:00:00Z,30.3085,-88.1395,2.253,7.33,1111122 
DISL,ioos:station:DISL:CATA:1,2017-09-06T04:30:00Z,30.3085,-88.1395,2.249,7.15,1111122 
DISL,ioos:station:DISL:CATA:1,2017-09-06T05:00:00Z,30.3085,-88.1395,2.25,6.57,1111122 
DISL,ioos:station:DISL:CATA:1,2017-09-06T05:30:00Z,30.3085,-88.1395,2.251,5.91,1111122 
DISL,ioos:station:DISL:CATA:1,2017-09-06T06:00:00Z,30.3085,-88.1395,2.259,5.67,1111122 
DISL,ioos:station:DISL:CATA:1,2017-09-06T06:30:00Z,30.3085,-88.1395,2.264,5.27,1111122 
DISL,ioos:station:DISL:CATA:1,2017-09-06T07:00:00Z,30.3085,-88.1395,2.35,6.21,1111122 
DISL,ioos:station:DISL:CATA:1,2017-09-06T07:30:00Z,30.3085,-88.1395,2.354,5.19,1111122 
DISL,ioos:station:DISL:CATA:1,2017-09-06T08:00:00Z,30.3085,-88.1395,2.312,3.98,1111122 
DISL,ioos:station:DISL:CATA:1,2017-09-06T08:30:00Z,30.3085,-88.1395,2.213,4.35,1111122 
DISL,ioos:station:DISL:CATA:1,2017-09-06T09:00:00Z,30.3085,-88.1395,2.247,3.71,1111122 
DISL,ioos:station:DISL:CATA:1,2017-09-06T09:30:00Z,30.3085,-88.1395,2.328,3.52,1111122 
DISL,ioos:station:DISL:CATA:1,2017-09-06T10:00:00Z,30.3085,-88.1395,2.295,5.16,1111122 
DISL,ioos:station:DISL:CATA:1,2017-09-06T10:30:00Z,30.3085,-88.1395,2.289,5.71,1111122 
DISL,ioos:station:DISL:CATA:1,2017-09-06T11:00:00Z,30.3085,-88.1395,2.277,5.58,1111122 
DISL,ioos:station:DISL:CATA:1,2017-09-06T11:30:00Z,30.3085,-88.1395,2.324,5.57,1111122 
DISL,ioos:station:DISL:CATA:1,2017-09-06T12:00:00Z,30.3085,-88.1395,2.374,4.94,1111122 
DISL,ioos:station:DISL:CATA:1,2017-09-06T12:30:00Z,30.3085,-88.1395,2.391,5.61,1111122 
DISL,ioos:station:DISL:CATA:1,2017-09-06T13:00:00Z,30.3085,-88.1395,2.403,5.61,1111122 
DISL,ioos:station:DISL:CATA:1,2017-09-06T13:30:00Z,30.3085,-88.1395,2.434,5.71,1111122 
DISL,ioos:station:DISL:CATA:1,2017-09-06T14:00:00Z,30.3085,-88.1395,2.464,5.89,1111122 
DISL,ioos:station:DISL:CATA:1,2017-09-06T14:30:00Z,30.3085,-88.1395,2.455,6.52,1111122 
DISL,ioos:station:DISL:CATA:1,2017-09-06T15:00:00Z,30.3085,-88.1395,2.461,6.44,1111122 
DISL,ioos:station:DISL:CATA:1,2017-09-06T15:30:00Z,30.3085,-88.1395,2.476,6.59,1111122 